Sofia, Bulgaria

3:40 AM EEST on September 25, 2016 (GMT +0300)
Sofia

Weather History for LBSF - November, 2013

Change the Weather History Date:

Wednesday, November 27, 2013

  Actual Average Record
Temperature  
Mean Temperature 30 °F -  
Max Temperature 34 °F 44 °F 53 °F (2003)
Min Temperature 26 °F 31 °F 21 °F (2004)
Degree Days  
Heating Degree Days 35    
Moisture  
Dew Point 30 °F    
Average Humidity 93    
Maximum Humidity 100    
Minimum Humidity 77    
Precipitation  
Precipitation 0.03 in - - ()
Sea Level Pressure  
Sea Level Pressure 30.09 in    
Wind  
Wind Speed 4 mph ()    
Max Wind Speed 9 mph    
Max Gust Speed -    
Visibility 4.5 miles    
Events Snow    
Averages and records for this station are not official NWS values.
T = Trace of Precipitation, MM = Missing Value Source: Averaged Metar Reports

Daily Weather History Graph

Daily Weather History Graph

Search for Another Location

Airport or City:

Trip Planner

Search our weather history database for the weather conditions in past years. The results will help you decide how hot, cold, wet, or windy it might be!

Date:

Astronomy

Nov. 27, 2013 Rise Set
Actual Time 7:32 AM EET 4:55 PM EET
Civil Twilight 7:01 AM EET 5:26 PM EET
Nautical Twilight 6:26 AM EET 6:01 PM EET
Astronomical Twilight 5:52 AM EET 6:35 PM EET
Moon 1:08 AM EET (11/27) 1:30 PM EET (11/27)
Length of Visible Light 10h 25m
Length of Day
9h 23m
Waning Crescent, 34% of the Moon is Illuminated
Nov 27
Waning Crescent
Dec 3
New
Dec 9
First Quarter
Dec 17
Full
Dec 25
Last Quarter

Hourly Weather History & Observations

Time (EET) Temp. Windchill Dew Point Humidity Pressure Visibility Wind Dir Wind Speed Gust Speed Precip Events Conditions
12:00 AM 32.0 °F 27.6 °F 32.0 °F 100% 29.89 in - Variable 4.5 mph - N/A Snow Light Snow
12:30 AM 32.0 °F 25.7 °F 32.0 °F 100% 29.89 in - ESE 6.7 mph - N/A Snow Light Snow
1:00 AM 32.0 °F 25.7 °F 32.0 °F 100% 29.89 in - ESE 6.7 mph - N/A Snow Light Snow
1:30 AM 32.0 °F 25.7 °F 32.0 °F 100% 29.89 in - ESE 6.7 mph - N/A Snow Light Snow
2:00 AM 31 °F - 31 °F 100% 29.97 in 2 mi East 2.2 mph - - Snow Snow
2:00 AM 33.8 °F 29.7 °F 33.8 °F 100% 29.89 in 1.9 mi ESE 4.5 mph - N/A Snow Light Snow
2:30 AM 33.8 °F 29.7 °F 33.8 °F 100% 29.89 in - ESE 4.5 mph - N/A Snow Light Snow
3:00 AM 32.0 °F 27.6 °F 32.0 °F 100% 29.89 in - ESE 4.5 mph - N/A Snow Light Snow
3:30 AM 32.0 °F - 32.0 °F 100% 29.89 in - ESE 2.2 mph - N/A Snow Light Snow
4:00 AM 32.0 °F - 32.0 °F 100% 29.92 in 3.1 mi SSE 2.2 mph - N/A Snow Light Snow
4:30 AM 32.0 °F - 32.0 °F 100% 29.89 in 2.2 mi Variable 2.2 mph - N/A Snow Light Snow
5:00 AM 31 °F - 31 °F 100% 29.99 in 1 mi Calm Calm - - Snow Light Snow
5:00 AM 32.0 °F - 32.0 °F 100% 29.92 in 3.1 mi Variable 2.2 mph - N/A Snow Light Snow
5:30 AM 32.0 °F - 32.0 °F 100% 29.92 in - NNW 2.2 mph - N/A Snow Light Snow
6:00 AM 32.0 °F 27.6 °F 32.0 °F 100% 29.95 in 1.3 mi NNW 4.5 mph - N/A Snow Snow
6:30 AM 32.0 °F 27.6 °F 32.0 °F 100% 29.98 in 0.7 mi North 4.5 mph - N/A Snow Heavy Snow
7:00 AM 30.2 °F 23.5 °F 30.2 °F 100% 29.98 in 0.6 mi North 6.7 mph - N/A Snow Heavy Snow
7:30 AM 28.4 °F 23.4 °F 28.4 °F 100% 30.01 in 0.5 mi Variable 4.5 mph - N/A Snow Heavy Snow
8:00 AM 29 °F - 28 °F 96% 30.09 in 1 mi Calm Calm - - Snow Snow
8:00 AM 26.6 °F - 26.6 °F 100% 30.01 in - NE 2.2 mph - N/A Snow Heavy Snow
8:30 AM 28.4 °F 23.4 °F 28.4 °F 100% 30.01 in 0.5 mi ENE 4.5 mph - N/A Snow Heavy Snow
9:00 AM 30.2 °F 23.5 °F 30.2 °F 100% 30.04 in 3.1 mi ESE 6.7 mph - N/A Snow Light Snow
9:30 AM 30.2 °F 23.5 °F 30.2 °F 100% 30.04 in 3.7 mi ESE 6.7 mph - N/A Snow Light Snow
10:00 AM 28.4 °F 21.4 °F 28.4 °F 100% 30.06 in 5.0 mi SE 6.7 mph - N/A Snow Light Snow
10:30 AM 28.4 °F 23.4 °F 28.4 °F 100% 30.09 in 2.8 mi Variable 4.5 mph - N/A Snow Light Snow
11:00 AM 32 °F - 31 °F 93% 30.14 in 1 mi Calm Calm - - Snow Light Snow
11:00 AM 30.2 °F 25.5 °F 30.2 °F 100% 30.09 in 3.1 mi Variable 4.5 mph - N/A Snow Light Snow
11:30 AM 32.0 °F 27.6 °F 30.2 °F 93% 30.09 in 5.0 mi SE 4.5 mph - N/A   Overcast
12:00 PM 32.0 °F - 32.0 °F 100% 30.09 in 6.2 mi Variable 2.2 mph - N/A   Mostly Cloudy
12:30 PM 32.0 °F - 30.2 °F 93% 30.09 in 6.2 mi Variable 2.2 mph - N/A   Overcast
1:00 PM 33.8 °F - 32.0 °F 93% 30.09 in 6.2 mi Variable 2.2 mph - N/A   Overcast
1:30 PM 33.8 °F - 28.4 °F 81% 30.12 in 5.0 mi Variable 2.2 mph - N/A   Overcast
2:00 PM 33 °F - 29 °F 80% 30.18 in 5 mi West 2.2 mph - -   Mist
2:00 PM 33.8 °F 29.7 °F 28.4 °F 81% 30.12 in 6.2 mi NNW 4.5 mph - N/A   Overcast
2:30 PM 33.8 °F 29.7 °F 28.4 °F 81% 30.15 in 6.2 mi Variable 4.5 mph - N/A   Overcast
3:00 PM 33.8 °F 29.7 °F 28.4 °F 81% 30.15 in 6.2 mi NE 4.5 mph - N/A   Overcast
3:30 PM 33.8 °F 29.7 °F 28.4 °F 81% 30.15 in 6.2 mi Variable 4.5 mph - N/A   Overcast
4:00 PM 33.8 °F 29.7 °F 28.4 °F 81% 30.15 in 6.2 mi NNW 4.5 mph - N/A   Overcast
4:30 PM 33.8 °F 29.7 °F 28.4 °F 81% 30.18 in 6.2 mi NNW 4.5 mph - N/A   Overcast
5:00 PM 32 °F - 28 °F 77% 30.25 in 5 mi Calm Calm - -   Mist
5:00 PM 32.0 °F 27.6 °F 28.4 °F 87% 30.18 in 6.2 mi NNW 4.5 mph - N/A   Overcast
5:30 PM 32.0 °F 27.6 °F 28.4 °F 87% 30.18 in 6.2 mi WNW 4.5 mph - N/A   Overcast
6:00 PM 30.2 °F 23.5 °F 26.6 °F 86% 30.21 in 6.2 mi NW 6.7 mph - N/A   Overcast
6:30 PM 30.2 °F 23.5 °F 26.6 °F 86% 30.24 in 6.2 mi NW 6.7 mph - N/A   Overcast
7:00 PM 30.2 °F 22.1 °F 26.6 °F 86% 30.24 in 6.2 mi NW 8.9 mph - N/A   Overcast
7:30 PM 28.4 °F 21.4 °F 26.6 °F 93% 30.24 in 6.2 mi WNW 6.7 mph - N/A   Overcast
8:00 PM 31 °F - 28 °F 82% 30.30 in 6 mi Calm Calm - -   Mostly Cloudy
8:00 PM 28.4 °F 21.4 °F 26.6 °F 93% 30.24 in 6.2 mi NW 6.7 mph - N/A   Overcast
8:30 PM 28.4 °F 21.4 °F 26.6 °F 93% 30.27 in 6.2 mi NW 6.7 mph - N/A   Overcast
9:00 PM 28.4 °F 21.4 °F 26.6 °F 93% 30.27 in 6.2 mi WNW 6.7 mph - N/A   Overcast
9:30 PM 33.8 °F 27.9 °F 30.2 °F 87% 30.27 in 6.2 mi NW 6.7 mph - N/A   Overcast
10:00 PM 32.0 °F 24.3 °F 28.4 °F 87% 30.30 in 6.2 mi NW 8.9 mph - N/A   Overcast
10:30 PM 32.0 °F 25.7 °F 28.4 °F 87% 30.30 in 6.2 mi NW 6.7 mph - N/A   Overcast
11:00 PM 31 °F - 28 °F 83% 30.37 in 6 mi Calm Calm - -   Mist
11:00 PM 32.0 °F 24.3 °F 28.4 °F 87% 30.30 in 6.2 mi WNW 8.9 mph - N/A   Overcast
11:30 PM 32.0 °F 25.7 °F 28.4 °F 87% 30.30 in 6.2 mi NW 6.7 mph - N/A   Overcast